Вернуться в каталог

STARLINK-31956

АктивенСвязьVLEO
NORAD 59930·PAYLOAD·🇺🇸 United States

Запущен Jun 1, 2024 с Cape Canaveral Space Force Station

Loading…

Ближайшие Пролёты (ближайшие 24 часа)

TLE

СвежийSource: CelesTrak SupGP

Эпоха: Sep 14, 2026, 13:46 UTC

1 59930C 24106J   26257.57409722 -.00017902  00000+0 -64863-3 0  2574
2 59930  43.0013 345.7754 0001213 273.0947 337.8146 15.27577053    18

Отслеживайте STARLINK-31956 в реальном времени с AllMySat

Download on the App Store